Flag for U.S.A. Weather past 2 weeks in New City, New York, U.S.A.

Now
31 °F

Light snow. Overcast.


Feels Like: 20 °F
Forecast: 17 / 34 °F
Wind: 15 mph from Northwest

Location: Westchester County Airport

Current Time: Jan 30, 2015 at 11:18:32 AM

Latest Report: Jan 30, 2015 at 10:56 AM


Visibility: 7 mi

Pressure: 29.84 "Hg

Humidity: 79%

Dew point: 25 °F

Location of New CityLocation

Historic Weather in New City — Graph

°F

New City temperature yesterday

Maximum temperature yesterday: 30 °F (at 2:56 PM)
Minimum temperature yesterday: 13 °F (at 3:56 AM)
Average temperature yesterday: 24 °F

Past Weeks' High & Low Weather Summary

 TemperatureHumidityPressure
High42 °F (Jan 18, 3:56 PM)100% (Jan 24, 4:04 AM)30.41 "Hg (Jan 24, 4:04 AM)
Low13 °F (Jan 17, 6:56 AM)26% (Jan 17, 2:56 PM)29.27 "Hg (Jan 24, 3:56 PM)
Average28 °F63%29.97 "Hg
* Reported Jan 15 9:56 AM — Jan 30 9:56 AM, New City, Weather by CustomWeather, © 2014

Note: Actual official high and low records may vary slightly from our data, if they occured in-between our weather recording intervals... More about our weather records

Advertising

New City weather history for previous 24 hours

 ConditionsComfort  
Time TempWeatherWind HumidityBarometerVisibility
9:56 AM
Jan 30
29 °FLight snow. Ice fog.12 mph89%29.85 "Hg4 mi
8:56 AM30 °FLight snow. Ice fog.9 mph85%29.86 "Hg1 mi
7:56 AM30 °FLight snow. Ice fog.8 mph85%29.83 "Hg4 mi
6:56 AM30 °FIce fog.7 mph92%29.84 "Hg6 mi
5:56 AM30 °FIce fog.No wind96%29.85 "Hg6 mi
4:56 AM31 °FDrizzle. Ice fog.No wind92%29.85 "Hg6 mi
3:56 AM31 °FLight snow. Ice fog.No wind92%29.87 "Hg3 mi
2:56 AM30 °FLight snow. Ice fog.5 mph92%29.90 "Hg1 mi
1:56 AM30 °FLight snow. Ice fog.6 mph92%29.93 "Hg2 mi
12:56 AM30 °FLight snow. Ice fog.6 mph89%29.96 "Hg1 mi
11:56 PM
Jan 29
30 °FLight snow. Overcast.9 mph82%29.99 "Hg1 mi
10:56 PM29 °FMostly cloudy.No wind82%30.03 "Hg9 mi
9:56 PM30 °FMostly cloudy.No wind75%30.06 "Hg10 mi
8:56 PM30 °FOvercast.5 mph75%30.08 "Hg10 mi
7:56 PM28 °FOvercast.7 mph78%30.09 "Hg10 mi
6:56 PM28 °FMostly cloudy.7 mph75%30.12 "Hg10 mi
5:56 PM28 °FPassing clouds.6 mph72%30.14 "Hg10 mi
4:56 PM28 °FPartly sunny.9 mph61%30.15 "Hg10 mi
3:56 PM28 °FBroken clouds.8 mph53%30.16 "Hg10 mi
2:56 PM30 °FPartly sunny.8 mph45%30.19 "Hg10 mi
1:56 PM29 °FSunny.6 mph45%30.20 "Hg10 mi
12:56 PM29 °FSunny.5 mph41%30.23 "Hg10 mi
11:56 AM28 °FSunny.5 mph35%30.27 "Hg10 mi
Weather by CustomWeather, © 2014

See weather overviewHow to use our weather pages